Dewpoint
24 21 22 23 24 24 25 23 23 21 19 17 17 18 15 15 15 16 17 20 30 38 37 37 38 42 52 55 56 57 57 57 57 58 58 58 59 59 60 60 61 61 62 63 63 63 62 63 65 66 67 68 68 69 69 70 70 70 70 71 71 72 72 72 72 72 71 71 71 71 71 70 71 72 72 72 71 71 72 73 73 74 74 74 75 75
23 22 22 22 24 24 24 23 19 17 16 16 15 14 13 14 14 15 18 23 27 35 36 39 39 43 51 54 55 56 57 56 57 57 58 58 58 59 59 60 60 61 62 62 62 62 62 62 63 65 66 68 67 68 69 69 70 70 70 70 71 71 72 72 72 71 71 71 71 70 70 70 70 71 71 71 71 71 72 73 74 74 74 74 75 75
21 21 22 22 24 25 25 24 20 17 16 15 14 14 13 14 14 15 17 19 21 28 31 38 39 41 49 53 55 56 56 56 57 57 57 58 58 58 59 60 60 60 61 61 61 61 61 61 62 64 65 66 67 68 68 69 70 70 70 70 71 71 71 72 72 71 71 71 71 71 71 70 70 71 71 71 72 72 72 73 74 74 75 75 75 75
21 20 21 23 23 23 23 23 22 20 17 16 15 16 14 14 17 14 18 20 22 20 30 37 38 39 46 51 54 55 56 56 56 57 57 58 57 58 58 59 60 60 60 60 60 60 60 60 61 63 64 65 66 67 68 69 69 70 70 70 70 71 71 71 71 72 71 71 71 71 71 71 71 70 72 72 72 71 71 72 74 74 75 75 75 75
20 23 22 23 23 22 21 22 22 21 20 19 16 15 15 15 14 14 17 17 18 20 27 34 40 39 40 46 49 53 55 54 54 56 56 57 57 57 58 59 60 59 59 59 59 60 60 60 60 62 64 65 65 66 67 68 69 69 69 70 70 70 71 71 72 72 72 72 71 71 72 72 71 72 72 71 71 71 71 72 74 74 75 75 75 75
19 21 23 22 22 22 21 21 21 21 21 20 20 16 16 16 15 15 15 15 17 17 29 33 35 36 39 43 47 50 52 52 52 54 54 56 56 56 57 58 59 60 59 59 59 59 59 59 60 61 63 64 65 66 67 67 68 69 69 69 70 70 71 71 71 72 72 71 71 71 70 70 70 70 70 70 69 70 71 71 73 74 75 75 75 75
20 22 22 22 21 21 21 20 21 21 20 19 20 19 17 16 16 15 14 15 20 17 24 34 30 32 38 38 44 47 49 50 50 51 53 54 55 55 55 57 58 58 58 58 58 58 58 59 59 60 62 63 64 65 67 67 68 68 69 69 69 70 71 71 71 71 72 71 71 70 70 70 70 69 70 70 70 70 71 73 74 74 75 75 75 75
23 22 21 22 21 21 20 20 21 20 19 19 21 17 16 15 14 14 15 14 16 31 29 23 34 34 34 37 40 43 46 48 47 49 51 51 53 53 54 55 57 58 58 57 57 57 58 58 59 59 60 62 64 65 66 67 68 68 68 69 69 70 71 71 71 71 72 71 71 71 70 70 70 69 69 70 70 71 72 73 74 74 75 75 75 75
23 23 21 20 20 20 20 20 21 21 19 19 19 15 14 13 13 13 13 13 15 15 14 20 21 24 36 37 39 40 42 45 45 45 48 49 51 52 53 53 55 57 57 57 56 56 57 58 58 59 60 61 63 64 65 66 67 68 68 69 69 69 70 71 71 71 71 72 71 71 70 70 70 70 70 71 71 71 72 72 73 74 74 75 75 75
24 24 23 22 21 20 20 20 20 20 18 19 16 16 14 13 12 12 13 13 21 20 16 18 22 20 28 40 38 40 40 42 43 43 45 47 48 50 51 52 53 55 56 56 56 56 56 57 58 59 59 61 62 64 66 66 67 67 68 68 69 69 70 71 71 71 71 71 72 71 70 70 70 70 70 70 71 71 71 72 73 74 74 74 75 74
21 33 30 23 22 22 21 20 20 19 19 19 15 13 10 9 15 22 20 19 22 16 15 14 22 21 18 33 37 39 39 40 41 43 43 45 46 48 50 51 51 53 55 56 56 56 56 56 57 58 59 60 61 63 64 65 66 67 67 68 68 69 70 71 71 71 71 71 71 71 70 70 70 70 70 70 70 70 70 71 72 73 74 74 74 74
21 21 26 23 25 23 21 18 18 19 18 17 11 11 13 13 16 15 19 27 12 9 18 16 16 26 19 27 37 39 41 40 41 41 41 42 43 45 48 49 50 51 53 54 55 55 55 56 56 57 58 59 61 62 64 65 66 66 67 68 68 69 69 70 71 71 71 71 71 71 71 70 70 70 70 69 69 70 70 70 71 73 74 74 74 74
18 19 20 21 32 21 19 18 17 16 16 15 14 15 11 13 11 10 11 8 11 7 20 20 17 22 24 26 34 39 40 41 41 41 41 41 42 43 45 48 49 50 52 53 54 55 55 55 56 57 58 59 60 62 63 64 65 66 66 67 67 68 69 70 71 71 71 71 71 71 71 70 70 70 70 70 69 70 70 70 71 72 73 73 73 73
15 19 17 18 19 26 18 17 16 13 13 13 13 13 11 8 7 10 11 17 17 20 22 20 20 16 30 27 33 37 40 41 42 42 42 42 42 43 44 46 47 48 50 52 53 54 55 55 55 56 58 59 60 61 62 64 65 65 66 67 67 68 69 70 71 71 71 70 71 71 71 70 71 70 70 70 69 70 70 70 71 72 73 73 73 73
13 14 15 16 16 20 18 17 16 14 12 12 12 10 12 10 11 11 11 6 5 9 13 20 21 27 18 29 33 37 40 41 42 43 43 44 44 44 44 45 46 46 48 51 53 54 55 56 56 56 57 59 60 60 61 63 65 65 66 66 67 67 69 70 70 71 71 70 71 71 71 71 71 70 70 70 70 70 70 70 70 72 73 73 73 73
13 14 18 17 17 18 18 17 16 12 9 9 10 11 11 10 30 5 17 16 18 16 14 24 23 29 22 37 36 35 38 41 43 43 44 44 45 45 46 45 45 46 47 49 52 53 55 56 56 56 57 58 59 60 61 62 64 65 66 66 67 67 68 69 70 71 71 71 71 71 71 71 71 71 71 71 70 70 70 70 70 71 72 73 73 73
18 13 15 21 19 17 18 19 15 10 11 11 8 7 8 13 8 10 28 28 26 20 13 31 25 24 29 26 27 35 37 39 42 42 42 43 44 46 47 47 46 46 46 48 50 53 54 55 56 57 57 57 59 60 61 62 64 65 66 66 67 67 68 69 70 70 71 71 71 71 71 71 70 70 70 70 70 70 70 70 70 71 72 73 73 73
13 14 19 15 15 17 17 19 17 12 12 6 5 7 12 13 10 10 5 13 9 6 14 21 14 18 22 22 37 33 36 37 40 42 42 42 43 45 46 48 48 47 47 48 49 52 53 55 56 56 57 57 58 60 61 62 63 65 66 66 66 67 67 68 69 70 71 71 71 71 71 71 71 70 70 70 71 71 70 70 70 70 71 72 72 73
15 11 13 15 14 16 18 17 16 16 13 12 7 10 5 10 6 15 14 3 4 5 5 15 22 21 24 26 29 31 34 35 38 41 41 42 42 44 45 47 48 48 48 48 49 50 52 54 55 56 56 57 58 60 61 62 63 65 66 66 66 67 67 68 69 70 71 71 71 71 71 71 71 71 70 70 71 71 70 70 70 70 71 71 72 72
17 10 14 17 14 14 15 17 15 15 16 15 8 5 9 9 7 10 9 19 11 8 11 2 14 9 27 21 27 26 33 35 35 38 40 41 42 43 44 45 47 49 49 49 49 49 51 52 54 55 56 56 57 59 60 61 62 64 65 67 67 67 68 68 69 69 70 70 71 71 71 71 71 71 71 71 71 71 71 70 70 70 70 71 71 71
15 16 10 15 17 15 14 17 14 15 15 15 11 5 8 13 13 7 21 6 8 19 13 9 6 16 25 31 28 26 30 35 36 37 39 40 41 42 44 44 46 48 49 50 50 50 50 51 52 54 56 57 57 59 60 60 61 63 65 66 67 67 67 68 69 69 69 70 70 71 71 71 71 71 71 71 71 71 71 71 71 70 70 71 71 71
15 18 12 14 12 13 13 17 15 15 16 15 13 9 4 4 9 5 6 15 18 13 15 10 3 20 22 34 31 27 29 30 34 37 38 39 40 41 43 44 45 47 49 50 50 50 50 51 52 53 55 57 57 58 59 60 61 62 64 65 67 67 67 68 69 69 70 70 70 70 70 70 71 71 71 71 71 71 71 71 71 71 71 70 71 71
14 23 14 12 12 12 13 14 17 16 17 17 15 13 6 5 10 8 9 10 19 8 25 22 11 10 24 33 33 31 31 28 29 35 38 39 39 40 42 43 45 46 48 49 50 51 51 52 52 53 54 56 57 58 59 60 61 62 63 64 66 67 67 68 68 69 70 70 70 70 70 70 71 71 71 71 71 71 71 71 71 71 71 70 70 71
44 23 16 15 19 17 15 15 16 19 17 16 16 15 10 6 4 3 5 18 8 16 10 10 14 13 24 41 35 28 29 29 37 36 37 38 39 40 41 43 44 46 48 49 50 50 52 52 53 54 55 57 58 58 59 60 61 62 63 64 65 66 67 68 68 69 70 70 70 70 70 70 70 71 71 71 71 71 71 71 71 72 71 71 71 70
32 28 25 16 15 14 15 18 15 17 17 15 15 15 13 11 6 8 21 27 10 10 8 9 5 7 21 47 39 33 35 35 35 35 37 37 39 39 40 43 46 47 48 49 49 50 52 52 54 55 56 57 58 58 60 61 61 62 63 63 65 66 67 68 68 69 70 70 70 70 70 70 70 70 71 71 71 71 71 71 71 71 71 71 71 70
34 31 28 16 13 13 14 13 13 14 14 17 17 14 14 13 11 11 5 19 13 27 20 12 12 26 28 31 30 26 18 21 33 37 37 37 38 38 40 41 45 48 49 49 49 50 51 53 54 56 57 58 58 59 60 61 62 62 63 64 64 66 67 68 69 69 69 70 70 70 71 71 71 70 70 71 71 71 71 71 71 71 71 71 71 70
36 35 30 28 21 15 18 24 28 28 15 12 12 13 13 13 12 10 20 17 13 24 16 21 25 21 17 16 24 23 22 12 10 22 33 36 37 41 42 43 44 47 48 48 50 50 51 53 54 56 57 58 58 59 60 61 62 62 63 64 65 66 67 68 69 69 69 70 70 70 71 71 71 71 71 71 71 71 71 71 71 71 71 71 71 70
36 33 32 33 33 30 28 25 20 21 12 12 12 12 13 13 13 11 13 12 27 17 14 25 35 18 21 28 29 30 26 23 20 23 29 36 39 40 42 45 53 46 48 49 49 50 51 52 54 56 57 58 59 60 61 62 62 62 63 63 64 66 67 68 69 70 70 70 70 70 71 71 71 71 71 71 72 71 71 72 72 72 72 72 71 70
33 32 31 34 30 30 30 29 24 21 14 12 12 11 12 12 13 11 15 18 24 14 14 24 32 25 21 20 21 25 25 25 24 31 28 27 35 41 42 42 44 45 47 48 49 50 51 51 54 56 58 59 59 60 61 62 62 63 63 64 65 66 67 69 69 70 70 70 70 71 71 71 72 72 72 72 72 72 72 72 72 72 72 72 71 71
33 33 36 33 30 30 30 29 25 18 16 13 12 12 12 11 11 12 12 16 16 21 20 24 30 22 19 17 16 17 24 27 29 38 45 40 35 38 41 41 41 44 46 48 50 51 51 52 54 56 58 59 60 60 61 62 63 63 63 64 65 66 67 69 70 70 70 71 71 71 71 72 72 72 72 72 72 72 72 72 72 72 72 72 71 71
30 31 35 31 31 30 30 29 23 18 15 14 13 12 12 11 11 11 11 14 21 15 16 20 28 28 27 22 17 17 19 32 39 38 40 42 43 44 40 39 40 42 46 48 50 50 51 52 54 56 58 59 60 60 61 63 63 63 63 64 65 66 67 69 70 70 70 71 71 71 72 72 72 72 72 72 72 72 72 72 71 71 71 71 71 71
32 33 33 32 31 29 29 25 26 20 16 13 14 15 12 11 11 11 13 15 18 19 21 22 23 22 24 25 27 25 26 29 29 32 32 40 47 49 43 41 41 43 45 47 50 53 54 54 54 56 57 59 60 61 62 63 63 64 64 64 65 65 67 68 69 70 70 71 71 71 72 72 72 72 72 72 72 72 72 72 71 71 71 71 71 71
33 32 30 31 29 29 29 29 28 27 20 14 13 13 15 13 13 12 13 20 17 14 15 16 14 19 19 27 23 23 23 23 27 29 31 39 48 51 49 44 42 43 45 48 51 53 52 52 53 56 57 58 60 61 62 63 63 64 64 65 65 66 67 68 69 69 70 71 71 71 72 72 72 72 72 72 72 72 72 72 71 71 71 71 71 71
33 32 30 33 30 29 29 28 29 23 18 16 17 15 17 14 12 12 11 13 16 14 14 15 16 18 20 28 23 20 19 24 27 34 43 43 44 50 53 54 52 46 46 48 51 51 51 52 54 55 57 59 60 61 62 63 63 64 65 65 65 66 66 67 68 69 69 70 71 71 72 72 72 72 72 72 72 72 72 72 71 71 71 71 71 71
30 32 29 32 30 28 29 29 29 22 20 22 33 18 18 17 14 13 14 13 14 17 21 24 24 24 29 29 29 31 36 48 52 56 58 57 51 47 52 54 54 55 54 50 50 51 53 55 56 58 59 60 61 62 63 63 64 64 65 65 66 66 66 67 68 68 69 70 71 71 72 72 72 72 72 72 72 72 72 72 71 71 71 71 70 70
28 28 29 31 31 31 30 29 23 24 29 35 35 35 29 18 16 21 31 40 45 37 24 21 26 31 36 35 36 45 53 55 58 59 61 63 62 58 52 48 47 53 54 55 55 54 55 55 56 57 59 61 62 62 63 63 64 64 65 66 66 66 66 66 67 68 68 69 70 71 71 72 72 72 72 72 72 72 71 71 71 71 71 71 71 70
28 29 30 27 31 27 28 27 26 31 28 28 31 31 24 21 27 25 24 38 47 52 39 30 30 44 44 39 43 50 52 54 54 57 60 64 64 64 63 63 62 54 52 53 55 56 57 59 58 58 60 60 61 62 63 63 64 65 65 66 66 66 66 66 66 67 68 69 70 71 71 72 72 72 72 72 71 71 71 71 71 71 71 71 71 70
28 27 29 27 29 28 25 26 27 24 24 29 40 48 49 49 31 29 29 40 50 52 52 42 42 45 43 43 47 47 49 47 50 55 59 63 64 64 64 63 64 65 66 66 64 59 60 61 59 60 60 61 61 62 63 64 65 65 66 66 66 66 66 66 66 67 67 68 69 70 71 71 72 72 72 72 71 71 71 71 72 71 71 71 70 70
27 28 30 28 28 32 30 26 25 25 30 41 47 49 50 51 51 40 27 32 48 52 55 48 46 47 45 45 45 45 43 46 50 55 57 63 64 64 64 63 64 65 66 66 66 67 66 61 62 61 63 62 62 63 65 65 66 67 66 67 67 66 66 66 66 66 67 67 68 69 70 71 72 72 72 71 71 71 71 71 71 71 71 71 71 70
31 39 41 38 35 31 29 28 27 28 32 45 48 50 51 52 51 38 21 27 47 54 56 55 53 52 50 45 44 43 41 47 53 56 61 64 64 64 64 63 63 64 65 66 67 67 66 64 63 63 63 63 63 65 66 66 66 66 67 67 67 67 66 66 66 66 67 67 68 69 70 71 71 72 72 71 72 72 72 72 72 72 71 71 71 71
41 43 42 34 32 37 38 34 34 33 46 49 50 51 52 52 44 27 22 34 51 56 58 58 59 58 58 56 55 56 59 56 59 61 63 63 63 63 64 64 64 64 64 65 66 67 66 66 65 64 64 65 66 69 67 66 65 65 66 67 68 67 67 67 67 67 67 67 68 69 70 71 71 71 71 72 72 72 72 72 72 72 72 71 71 71
42 44 46 45 41 39 40 37 36 36 45 49 50 51 53 44 30 29 37 47 60 60 61 61 61 61 61 61 61 61 61 63 63 63 62 62 63 63 63 64 64 64 64 65 66 66 67 66 66 66 67 68 68 68 69 68 67 66 66 67 67 68 68 68 68 68 67 68 68 68 69 70 71 71 72 72 72 72 72 72 72 72 72 72 71 71
43 44 41 41 45 43 42 39 36 30 40 49 51 51 53 48 44 51 58 61 61 61 60 60 61 60 61 61 61 61 62 62 61 62 62 62 62 62 62 63 63 63 63 64 64 65 67 66 66 66 67 68 69 69 68 69 68 68 67 67 67 68 68 69 69 69 68 68 68 68 69 70 70 71 72 72 72 72 71 72 72 72 72 72 72 71
49 43 41 44 48 38 40 37 36 47 48 51 53 48 51 52 53 57 60 59 59 59 60 60 60 60 61 61 61 61 61 61 61 61 61 61 62 62 63 63 63 64 64 64 64 65 66 66 66 66 66 66 67 68 68 68 69 69 68 68 68 68 69 69 69 69 69 68 68 68 69 69 70 71 71 71 72 72 71 72 72 72 72 72 71 71
47 45 46 39 48 44 42 46 51 49 53 55 54 51 51 51 53 57 59 59 59 59 59 59 59 60 60 60 60 59 59 60 61 61 61 61 61 61 62 62 63 63 64 64 64 64 65 65 65 65 65 66 67 68 68 68 68 67 69 69 69 69 70 70 69 69 68 68 68 68 68 69 70 71 71 72 72 71 71 72 72 72 72 71 71 71
51 52 52 51 48 53 55 54 55 55 54 55 53 52 51 51 50 53 56 56 56 57 57 58 57 57 57 57 56 56 57 59 61 61 61 61 61 61 62 62 62 63 63 64 64 65 65 66 66 66 66 67 67 68 68 68 67 67 68 69 70 71 70 70 70 69 69 68 68 68 68 69 70 71 71 72 72 72 72 72 72 71 71 71 70 69
48 51 51 48 50 43 39 54 52 53 55 55 54 52 53 52 50 50 51 53 54 54 54 54 54 54 55 55 56 56 57 59 59 59 60 61 61 62 62 62 63 63 63 63 64 65 65 66 66 66 66 66 67 67 67 67 67 67 68 68 69 71 71 71 70 70 69 69 69 69 69 69 70 71 72 72 72 72 72 72 72 71 70 70 69 68
46 51 50 50 49 45 46 51 53 55 55 56 55 53 53 53 53 51 50 50 50 51 51 52 53 53 54 54 54 54 54 55 56 56 57 58 59 60 61 62 63 63 64 64 64 64 64 64 64 64 65 66 66 67 66 66 66 67 67 68 69 69 69 71 71 71 71 71 71 70 70 70 72 72 72 72 73 72 72 71 71 70 69 69 69 68
49 51 45 48 47 50 52 53 54 54 55 54 53 52 54 55 54 52 51 50 49 48 49 49 50 52 53 53 54 54 54 54 55 56 57 57 59 60 61 62 63 64 64 64 64 64 63 63 62 62 64 65 66 66 65 66 67 67 67 68 68 68 68 67 67 68 69 71 72 72 72 72 72 73 73 73 72 72 72 71 70 70 69 70 69 69
48 44 49 51 45 44 45 48 53 46 47 52 53 54 54 55 54 51 49 48 47 47 48 49 49 50 51 52 53 54 54 54 54 55 56 57 58 59 60 60 61 62 63 65 65 65 64 64 64 63 63 63 65 66 66 66 67 67 68 68 68 68 67 67 66 66 66 67 68 70 71 71 72 71 72 71 67 60 56 52 49 60 69 64 60 63
46 48 49 46 44 44 51 54 54 51 52 53 54 55 55 55 55 53 51 49 49 49 48 48 49 50 51 51 53 54 53 53 53 54 54 55 56 57 58 59 59 60 61 63 63 64 65 65 65 65 64 63 63 64 65 66 66 67 67 67 67 67 67 66 66 66 65 65 67 67 68 67 66 67 67 66 66 66 63 57 52 44 48 56 58 54